Regional Weather Roundup
Issued by NWS New Orleans/Baton Rouge, LA

Home | Current Version | Previous Version | Text Only | Print | Product List | Glossary On
Versions: 1 2 3 4 5 6 7 8 9 10 11 12 13 14 15 16 17 18 19 20 21 22 23 24 25 26 27 28 29 30 31 32 33 34 35 36 37 38 39 40 41 42 43 44 45 46 47 48 49 50
633
ASUS44 KLIX 291110
RWRLIX
NEW ORLEANS REGIONAL WEATHER ROUNDUP
NATIONAL WEATHER SERVICE NEW ORLEANS LA
600 AM CDT FRI AUG 29 2014

NOTE: "FAIR" INDICATES FEW OR NO CLOUDS BELOW 12,000 FEET WITH NO
      SIGNIFICANT WEATHER AND/OR OBSTRUCTIONS TO VISIBILITY.
      SKY/WX - SKY CONDITION AND SIGNIFICANT WEATHER.
      TMP - AIR TEMPERATURE.     DP    - DEWPOINT TEMPERATURE.
      RH  - RELATIVE HUMIDITY.   PRES  - PRESSURE.
      HI  - HEAT INDEX.          WCI   - WIND CHILL INDEX.

*  THESE STATIONS ARE NOT NWS OR FAA STATIONS AND ARE NOT UNDER
   NWS QUALITY CONTROL.

LAZ038-040-048-061>063-065>067-069-291200-
SOUTHEAST LOUISIANA

CITY           SKY/WX    TMP DP  RH WIND       PRES   REMARKS
N.O. AUDUBON   NOT AVBL
N.O. INTL ARPT PTCLDY    79  72  79 E3        29.94R
N.O. LAKEFRONT CLEAR     81  74  79 E6        29.95R
N.O. DOWNTOWN*   N/A     82  72  69 E3        29.95S
SLIDELL        CLEAR     72  69  90 N3        29.96R
BATON ROUGE    PTCLDY    75  73  93 NE3       29.95R
BOOTHVILLE     PTCLDY    82  78  88 E3        29.94R
BELLE CHASSE   MOCLDY    77  72  84 NE5       29.94R
BOGALUSA*        N/A     72  69  90 CALM      29.98R
GALLIANO*      NOT AVBL
NEW ROADS*       N/A     75  74  97 CALM      29.94S
GONZALES*        N/A     75  75 100 CALM      29.94S
HAMMOND*       PTCLDY    73  70  88 CALM      29.97S
HOUMA*         PTCLDY    77  73  86 NE6       29.92F
PORT FOURCHON* SUNNY     84  75  74 SE13      29.93S

$$

MSZ070-080>082-291200-
SOUTHERN MISSISSIPPI

CITY           SKY/WX    TMP DP  RH WIND       PRES   REMARKS
MCCOMB         CLOUDY    74  71  91 CALM      29.97R
GULFPORT       CLEAR     75  71  87 N3        29.96R
BILOXI         MOCLDY    75  72  88 NE5       29.96R
PASCAGOULA     CLEAR     72  70  93 CALM      29.96S

$$

COASTAL OBSERVATIONS
LAKE AND NEARSHORE STATIONS

STATION/POSITION TIME  TEMP    WIND        PRES    WAVE
                       AIR SEA DIR/SP/G            HT/PER
                 (UTC) (F)     (DEG/KT/KT) (MB)    (FT/S)
PASCAGOULA       1100   79      30/  3/  6 1013.8
WAVELAND YACHT   1100   79      60/  8/  9 1013.8
GRAND ISLE       1100   84 84  110/  7/ 12 1013.7
SOUTHWEST PASS   1100   85 88  110/ 12/ 14 1013.3
NEW CANAL        1100   80 84   80/  2/  4 1014.5
SHELL BEACH      1100   82 81   90/  6/  6 1013.8

OFFSHORE STATIONS

STATION/POSITION TIME  TEMP    WIND        PRES    WAVE
                       AIR SEA DIR/SP/G            HT/PER
                 (UTC) (F)     (DEG/KT/KT) (MB)    (FT/S)
64 S DAUPHIN ISL 1040   85 85  110/  8/ 12 1013.6

$$




USA.gov is the U.S. government's official web portal to all federal, state and local government web resources and services.